Greenland, New Hampshire, United States (03840)
Lat: 43.04N, Lon: 70.83W
Wx Zone: NHZ014
Local Info
Past Weather Observations for Tuesday, August 25, 2015

NOTE: This archive is for the closest National Weather Service station to Greenland. Information may differ from the station used for current weather conditions.

Click here for Long-term Archive

Time Weather Temperature Dewpoint Humidity Pressure Winds Precip Visibility
23:58
Mostly Cloudy
Fog And Mist
68°F / 20°C 66°F / 19°C 94% 29.86 in
(1011 mb)
NW 5.8 mph
(NW 9 kph)
- 1 1/2SM
22:58
Partly Cloudy
68°F / 20°C 66°F / 19°C 94% 29.86 in
(1011 mb)
SE 5.8 mph
(SE 9 kph)
- 8SM
21:58
Partly Cloudy
70°F / 21°C 68°F / 20°C 94% 29.86 in
(1011 mb)
SSE 2.3 mph
(SSE 4 kph)
- 8SM
20:58
Overcast
70°F / 21°C 70°F / 21°C 100% 29.86 in
(1011 mb)
SE 4.6 mph
(SE 7 kph)
- 8SM
20:43
Overcast
72°F / 22°C 70°F / 21°C 94% 29.89 in
(1012 mb)
SE 5.8 mph
(SE 9 kph)
- 7SM
20:28
Overcast
Fog And Mist
70°F / 21°C 70°F / 21°C 100% 29.89 in
(1012 mb)
SE 4.6 mph
(SE 7 kph)
- 5SM
19:58
Overcast
Fog And Mist
70°F / 21°C 70°F / 21°C 100% 29.86 in
(1011 mb)
Calm - 2 1/2SM
19:24
Overcast
Fog And Mist
70°F / 21°C 68°F / 20°C 94% 29.86 in
(1011 mb)
SE 5.8 mph
(SE 9 kph)
- 1 1/4SM
18:58
Overcast
Fog And Mist
70°F / 21°C 70°F / 21°C 100% 29.86 in
(1011 mb)
E 6.9 mph
(E 11 kph)
- 4SM
18:43
Overcast
Fog And Mist
70°F / 21°C 68°F / 20°C 94% 29.86 in
(1011 mb)
SE 9.2 mph
(SE 15 kph)
- 1 1/2SM
18:28
Overcast
Fog And Mist
70°F / 21°C 68°F / 20°C 94% 29.86 in
(1011 mb)
SE 10.4 mph
(SE 17 kph)
- 3/4SM
17:58
Obscured
Fog
70°F / 21°C 68°F / 20°C 94% 29.83 in
(1010 mb)
SE 12.7 mph
(SE 20 kph)
- 1/4SM
17:09
Obscured
Fog
70°F / 21°C 70°F / 21°C 100% 29.83 in
(1010 mb)
ESE 11.5 mph
(ESE 19 kph)
- 1/4SM
16:58
Overcast
Fog And Mist
70°F / 21°C 70°F / 21°C 100% 29.86 in
(1011 mb)
E 10.4 mph
(E 17 kph)
0.00 in
(0.00 mm)
5/8SM
16:42
Overcast
Fog And Mist
70°F / 21°C 68°F / 20°C 94% 29.86 in
(1011 mb)
ESE 8.1 mph
(ESE 13 kph)
- 1 1/2SM
16:08
Overcast
Fog And Mist
72°F / 22°C 70°F / 21°C 94% 29.86 in
(1011 mb)
E 6.9 mph
(E 11 kph)
- 3SM
15:58
Overcast
Drizzle
72°F / 22°C 70°F / 21°C 94% 29.86 in
(1011 mb)
ESE 9.2 mph
(ESE 15 kph)
0.00 in
(0.00 mm)
3/4SM
14:58
Overcast
Drizzle
70°F / 21°C 68°F / 20°C 94% 29.89 in
(1012 mb)
ESE 9.2 mph
(ESE 15 kph)
- 3/4SM
14:43
Overcast
Drizzle
72°F / 22°C 68°F / 20°C 88% 29.89 in
(1012 mb)
E 8.1 mph
(E 13 kph)
- 3/4SM
13:58
Overcast
Fog And Mist
72°F / 22°C 68°F / 20°C 88% 29.89 in
(1012 mb)
SE 8.1 mph
(SE 13 kph)
- 1 1/2SM
13:28
Overcast
Fog And Mist
72°F / 22°C 68°F / 20°C 88% 29.89 in
(1012 mb)
ESE 10.4 mph
(ESE 17 kph)
- 1 1/2SM
12:58
Overcast
Fog And Mist
72°F / 22°C 68°F / 20°C 88% 29.89 in
(1012 mb)
ESE 6.9 mph
(ESE 11 kph)
- 6SM
12:32
Overcast
Fog And Mist
70°F / 21°C 68°F / 20°C 94% 29.89 in
(1012 mb)
E 11.5 mph
(E 19 kph)
- 1SM
11:58
Overcast
Fog And Mist
72°F / 22°C 68°F / 20°C 88% 29.89 in
(1012 mb)
ESE 10.4 mph
(ESE 17 kph)
- 4SM
10:58
Overcast
73°F / 23°C 68°F / 20°C 83% 29.92 in
(1013 mb)
SE 11.5 mph
(SE 19 kph)
- 10SM
09:58
Mostly Cloudy
73°F / 23°C 68°F / 20°C 83% 29.92 in
(1013 mb)
SE 11.5 mph
(SE 19 kph)
- 10SM
08:58
Overcast
72°F / 22°C 66°F / 19°C 83% 29.92 in
(1013 mb)
SSE 8.1 mph
(SSE 13 kph)
- 10SM
07:58
Overcast
72°F / 22°C 68°F / 20°C 88% 29.92 in
(1013 mb)
Variable 4.6 mph
(Variable 7 kph)
- 10SM
06:58
Overcast
Fog And Mist
70°F / 21°C 68°F / 20°C 94% 29.89 in
(1012 mb)
SE 5.8 mph
(SE 9 kph)
- 5SM
06:28
Overcast
Fog And Mist
70°F / 21°C 68°F / 20°C 94% 29.89 in
(1012 mb)
Variable 5.8 mph
(Variable 9 kph)
- 3SM
05:58
Overcast
Fog And Mist
68°F / 20°C 66°F / 19°C 94% 29.89 in
(1012 mb)
SE 5.8 mph
(SE 9 kph)
- 3/4SM
05:39
Overcast
Fog
68°F / 20°C 66°F / 19°C 94% 29.89 in
(1012 mb)
SE 6.9 mph
(SE 11 kph)
- 1/2SM
05:28
Overcast
Fog And Mist
68°F / 20°C 68°F / 20°C 100% 29.89 in
(1012 mb)
SE 4.6 mph
(SE 7 kph)
- 2 1/2SM
04:58
Overcast
Fog And Mist
68°F / 20°C 68°F / 20°C 100% 29.89 in
(1012 mb)
SSE 1.2 mph
(SSE 2 kph)
- 5SM
03:58
Mostly Cloudy
68°F / 20°C 68°F / 20°C 100% 29.89 in
(1012 mb)
SSW 3.5 mph
(SSW 6 kph)
- 7SM
02:58
Overcast
70°F / 21°C 68°F / 20°C 94% 29.89 in
(1012 mb)
SSW 2.3 mph
(SSW 4 kph)
- 7SM
01:58
Overcast
Fog And Mist
70°F / 21°C 68°F / 20°C 94% 29.89 in
(1012 mb)
SW 8.1 mph
(SW 13 kph)
- 5SM
01:18
Overcast
Fog And Mist
70°F / 21°C 68°F / 20°C 94% 29.89 in
(1012 mb)
Calm - 3SM
00:58
Overcast
Fog And Mist
70°F / 21°C 68°F / 20°C 94% 29.89 in
(1012 mb)
SSW 1.2 mph
(SSW 2 kph)
- 1 1/4SM
Time Weather Temperature Dewpoint Humidity Pressure Winds Precip Visibility


Weather for websites

WeatherForYou.com, LLC is not responsible for any damages or problems caused by this service. Current weather conditions are obtained from the closest station including government and personal stations which may have varying degrees of accuracy. Weather forecasts are derived from the NOAA NDFD. Like all things, this site belongs to Jesus Christ... He just trusts us to maintain it. If you have any questions or comments email webmaster@weatherforyou.com

Copyright © 2015, WeatherForYou.com LLC. All rights reserved.